Weather in Korgon

Russia / Altai Republic     51°05′59″N   84°02′17″E
temp.,
°C
wind,
m/s
gust,
m/s
humid.,
%
clouds,
%
prec.,
mm/h
press.,
hPa
HPBL,
m
8 may, sat
sat801:00+3nw0190100 1.0 102134
04:00+2se119146 0.0 102112
07:00+3se11875 0.0 102231
10:00+8nne12627 0.0 1020489
13:00+12nnw22435 0.0 10191002
16:00+13nnw23380 0.0 10181284
19:00+11nw23500 0.0 1019627
22:00+5wnw11770 0.0 102110
9 may, sun
sun901:00+3sse11800 0.0 102110
04:00+3sse218280 0.0 102012
07:00+4se217149 0.0 102027
10:00+12e113973 0.0 1016442
13:00+16nnw122483 0.0 10141397
16:00+15nnw342780 0.0 10121825
19:00+12nnw2347100 0.0 1013345
22:00+7nw007328 0.0 101411
10 may, mon
mon1001:00+5ese118227 0.0 101411
04:00+4se1186100 0.0 101411
07:00+5ese1284100 0.0 101356
10:00+10e226099 0.0 1010599
13:00+15ene13405 0.0 10081854
16:00+16nw2240100 0.0 10062143
19:00+10ne237714 1.6 1008534
22:00+6se22946 0.3 100942
11 may, tue
tue1101:00+4sse229227 0.3 100917
04:00+4s11937 0.3 100911
07:00+4nnw119196 0.4 101053
10:00+7n228183 0.1 1010537
13:00+8nnw336559 0.3 1011888
16:00+8nnw235180 0.0 10111277
19:00+7nnw3351100 0.0 10131085
22:00+3nnw2374100 0.0 101678
12 may, wed
wed1201:000nw11794 0.0 101712
04:00−1wnw118725 0.0 101811
07:00+1nw138229 0.0 1018141
10:00+4nnw346292 0.2 10181376
13:00+3nnw456889 0.8 10191117
16:00+4nnw345974 0.4 10191384
19:00+5nnw234948 0.4 10191339
22:000w117225 0.0 102210